TimeCDT,TemperatureF,Dew PointF,Humidity,Sea Level PressureIn,VisibilityMPH,Wind Direction,Wind SpeedMPH,Gust SpeedMPH,PrecipitationIn,Events,Conditions,WindDirDegrees,DateUTC
12:15 AM,50.0,50.0,100,29.87,3.0,NE,11.5,-,N/A,,Overcast,50,2013-05-19 05:15:00
12:35 AM,48.2,48.2,100,29.87,10.0,NE,13.8,20.7,N/A,,Overcast,50,2013-05-19 05:35:00
12:55 AM,50.0,50.0,100,29.88,7.0,ENE,10.4,-,N/A,,Overcast,60,2013-05-19 05:55:00
1:15 AM,50.0,50.0,100,29.87,7.0,ENE,13.8,-,N/A,,Overcast,60,2013-05-19 06:15:00
1:35 AM,50.0,50.0,100,29.86,7.0,NE,15.0,-,N/A,,Overcast,50,2013-05-19 06:35:00
1:55 AM,50.0,50.0,100,29.85,8.0,NE,15.0,-,N/A,,Overcast,50,2013-05-19 06:55:00
2:15 AM,50.0,50.0,100,29.84,8.0,ENE,18.4,-,N/A,,Overcast,60,2013-05-19 07:15:00
2:35 AM,50.0,50.0,100,29.82,8.0,NE,18.4,23.0,N/A,,Overcast,40,2013-05-19 07:35:00
2:55 AM,50.0,50.0,100,29.84,10.0,NE,16.1,-,N/A,,Overcast,50,2013-05-19 07:55:00
3:15 AM,50.0,50.0,100,29.84,10.0,NE,15.0,-,N/A,,Overcast,50,2013-05-19 08:15:00
3:35 AM,50.0,50.0,100,29.85,10.0,NE,15.0,-,N/A,,Overcast,50,2013-05-19 08:35:00
3:55 AM,50.0,50.0,100,29.85,10.0,ENE,12.7,19.6,N/A,,Overcast,60,2013-05-19 08:55:00
4:15 AM,50.0,50.0,100,29.85,7.0,ENE,15.0,-,N/A,,Overcast,60,2013-05-19 09:15:00
4:35 AM,50.0,50.0,100,29.84,9.0,ENE,16.1,21.9,N/A,,Overcast,60,2013-05-19 09:35:00
4:55 AM,50.0,50.0,100,29.83,7.0,ENE,16.1,-,N/A,,Overcast,60,2013-05-19 09:55:00
5:15 AM,50.0,50.0,100,29.84,2.0,ENE,16.1,-,N/A,,Overcast,60,2013-05-19 10:15:00
5:35 AM,50.0,50.0,100,29.83,0.5,ENE,17.3,23.0,N/A,Fog,Fog,60,2013-05-19 10:35:00
5:55 AM,50.0,50.0,100,29.82,2.5,ENE,15.0,-,N/A,,Overcast,60,2013-05-19 10:55:00
6:15 AM,50.0,50.0,100,29.81,1.2,NE,18.4,24.2,N/A,,Overcast,50,2013-05-19 11:15:00
6:35 AM,50.0,50.0,100,29.79,5.0,NE,18.4,25.3,N/A,,Overcast,40,2013-05-19 11:35:00
7:15 AM,50.0,50.0,100,29.77,1.5,NE,21.9,27.6,N/A,,Overcast,40,2013-05-19 12:15:00
7:35 AM,50.0,50.0,100,29.77,1.0,NE,24.2,32.2,N/A,,Overcast,40,2013-05-19 12:35:00
7:55 AM,48.2,48.2,100,29.78,0.2,NE,25.3,33.4,N/A,Fog,Fog,50,2013-05-19 12:55:00
8:15 AM,48.2,48.2,100,29.78,0.2,ENE,23.0,32.2,N/A,Fog,Fog,60,2013-05-19 13:15:00
8:35 AM,48.2,48.2,100,29.79,0.2,ENE,21.9,31.1,N/A,Fog,Fog,70,2013-05-19 13:35:00
8:55 AM,48.2,48.2,100,29.78,0.2,ENE,17.3,28.8,N/A,Fog,Fog,60,2013-05-19 13:55:00
9:15 AM,48.2,48.2,100,29.77,0.2,NE,20.7,28.8,N/A,Rain,Light Rain,50,2013-05-19 14:15:00
9:35 AM,48.2,48.2,100,29.76,0.2,NE,20.7,26.5,N/A,Rain,Light Rain,40,2013-05-19 14:35:00
9:55 AM,50.0,50.0,100,29.77,0.2,NE,20.7,29.9,N/A,Fog,Fog,50,2013-05-19 14:55:00
10:15 AM,50.0,50.0,100,29.77,0.8,NE,24.2,27.6,0.02,Rain,Rain,40,2013-05-19 15:15:00
10:35 AM,50.0,50.0,100,29.77,2.5,ENE,20.7,33.4,0.06,Rain,Light Rain,60,2013-05-19 15:35:00
10:55 AM,50.0,50.0,100,29.77,4.0,NE,18.4,23.0,0.09,Rain,Light Rain,50,2013-05-19 15:55:00
11:15 AM,50.0,50.0,100,29.76,3.0,NE,20.7,28.8,0.02,Rain,Rain,50,2013-05-19 16:15:00
11:35 AM,50.0,50.0,100,29.74,3.0,NE,23.0,27.6,0.04,,Overcast,40,2013-05-19 16:35:00
11:55 AM,51.8,51.8,100,29.74,5.0,NE,23.0,29.9,0.04,,Overcast,50,2013-05-19 16:55:00
12:15 PM,51.8,51.8,100,29.74,3.0,NE,21.9,31.1,0.01,Rain,Light Rain,50,2013-05-19 17:15:00
12:35 PM,51.8,51.8,100,29.74,2.0,NE,26.5,34.5,0.04,Rain,Rain,50,2013-05-19 17:35:00
12:55 PM,51.8,51.8,100,29.73,2.0,NE,24.2,33.4,0.14,Rain,Heavy Rain,50,2013-05-19 17:55:00
1:15 PM,51.8,51.8,100,29.73,1.8,NE,24.2,36.8,0.06,Rain,Rain,50,2013-05-19 18:15:00
1:35 PM,51.8,51.8,100,29.74,3.0,NE,23.0,32.2,0.11,Rain,Rain,50,2013-05-19 18:35:00
2:15 PM,53.6,53.6,100,29.75,3.0,ENE,23.0,32.2,0.02,Rain,Light Rain,60,2013-05-19 19:15:00
2:35 PM,53.6,53.6,100,29.75,3.0,ENE,24.2,29.9,0.03,Rain,Light Rain,60,2013-05-19 19:35:00
2:55 PM,53.6,53.6,100,29.75,2.5,ENE,23.0,33.4,0.08,Rain,Rain,60,2013-05-19 19:55:00
3:15 PM,53.6,53.6,100,29.75,4.0,ENE,26.5,33.4,N/A,,Overcast,60,2013-05-19 20:15:00
3:35 PM,53.6,53.6,100,29.75,1.8,ENE,24.2,32.2,0.01,,Overcast,60,2013-05-19 20:35:00
3:55 PM,53.6,53.6,100,29.74,3.0,ENE,27.6,35.7,0.02,,Overcast,60,2013-05-19 20:55:00
4:15 PM,53.6,53.6,100,29.73,3.0,ENE,25.3,31.1,N/A,,Overcast,60,2013-05-19 21:15:00
4:35 PM,53.6,53.6,100,29.73,2.0,ENE,26.5,39.1,0.01,Rain,Rain,60,2013-05-19 21:35:00
4:55 PM,53.6,53.6,100,29.72,2.0,ENE,27.6,38.0,0.02,,Overcast,60,2013-05-19 21:55:00
5:15 PM,53.6,53.6,100,29.73,5.0,NE,25.3,35.7,N/A,Rain,Light Rain,50,2013-05-19 22:15:00
5:35 PM,53.6,53.6,100,29.72,3.0,ENE,27.6,36.8,N/A,Rain,Light Rain,60,2013-05-19 22:35:00
5:55 PM,53.6,53.6,100,29.72,2.5,NE,25.3,36.8,N/A,,Overcast,50,2013-05-19 22:55:00
6:15 PM,53.6,53.6,100,29.72,3.0,ENE,27.6,35.7,N/A,Rain,Light Rain,60,2013-05-19 23:15:00
6:35 PM,51.8,51.8,100,29.72,1.5,NE,25.3,38.0,0.06,Rain,Heavy Rain,50,2013-05-19 23:35:00
6:55 PM,51.8,51.8,100,29.71,1.8,NE,28.8,35.7,0.20,Rain,Heavy Rain,50,2013-05-19 23:55:00
7:15 PM,51.8,51.8,100,29.71,5.0,ENE,25.3,36.8,N/A,,Overcast,60,2013-05-20 00:15:00
7:35 PM,51.8,51.8,100,29.71,6.0,ENE,33.4,42.6,N/A,Rain,Light Rain,60,2013-05-20 00:35:00
7:55 PM,50.0,50.0,100,29.72,4.0,ENE,28.8,39.1,N/A,Rain,Light Rain,60,2013-05-20 00:55:00
8:15 PM,50.0,50.0,100,29.74,3.0,ENE,25.3,34.5,N/A,Rain,Light Rain,70,2013-05-20 01:15:00
8:35 PM,50.0,50.0,100,29.74,1.0,ENE,24.2,35.7,0.03,Rain,Heavy Rain,60,2013-05-20 01:35:00
8:55 PM,50.0,50.0,100,29.74,1.0,ENE,25.3,33.4,0.13,Rain,Heavy Rain,60,2013-05-20 01:55:00
9:15 PM,50.0,50.0,100,29.74,3.0,ENE,24.2,34.5,N/A,,Overcast,60,2013-05-20 02:15:00
9:35 PM,50.0,50.0,100,29.74,3.0,ENE,21.9,29.9,0.03,Rain,Rain,60,2013-05-20 02:35:00
9:55 PM,50.0,50.0,100,29.74,3.0,ENE,26.5,31.1,0.18,Rain,Heavy Rain,60,2013-05-20 02:55:00
10:15 PM,50.0,50.0,100,29.75,6.0,ENE,23.0,28.8,N/A,Rain,Light Rain,60,2013-05-20 03:15:00
10:35 PM,50.0,50.0,100,29.75,3.0,ENE,24.2,32.2,N/A,Rain,Light Rain,60,2013-05-20 03:35:00
11:15 PM,50.0,50.0,100,29.75,1.8,ENE,20.7,-,0.12,Rain,Heavy Rain,60,2013-05-20 04:15:00
11:35 PM,50.0,50.0,100,29.75,5.0,NE,17.3,-,0.18,,Overcast,50,2013-05-20 04:35:00
11:55 PM,50.0,50.0,100,29.74,2.5,NE,19.6,26.5,0.18,,Overcast,50,2013-05-20 04:55:00